Location: Ellerstadt
(49.4644°N, 8.2615°E)
Time: 02:21:02
(UTC+00:00)

Tiros 1 despin weight - All Passes

Search period start: 13 June 2021 00:00
Search period end: 23 June 2021 00:00
Orbit: 593 x 641 km, 48.2° (Epoch: 12 June)

Date Brightness Start Highest point End Pass type
(mag) Time Alt. Az. Time Alt. Az. Time Alt. Az.
13 Jun - 07:13:07 10° S 07:16:17 19° SE 07:19:27 10° E daylight
13 Jun - 08:52:52 10° WSW 08:57:11 54° SSE 09:01:32 10° E daylight
13 Jun - 10:34:07 10° W 10:38:34 77° S 10:43:04 10° E daylight
13 Jun - 12:15:37 10° W 12:19:55 49° SSW 12:24:17 10° SE daylight
13 Jun - 13:57:53 10° W 14:00:47 17° SW 14:03:42 10° S daylight
14 Jun - 07:28:24 10° SSW 07:32:15 30° SSE 07:36:09 10° E daylight
14 Jun - 09:09:00 10° WSW 09:13:24 68° S 09:17:50 10° E daylight
14 Jun - 10:50:25 10° W 10:54:50 71° S 10:59:19 10° ESE daylight
14 Jun - 12:32:00 10° W 12:36:02 34° SSW 12:40:08 10° SE daylight
15 Jun - 06:05:15 10° S 06:07:36 14° SE 06:09:58 10° ESE daylight
15 Jun - 07:44:09 10° SW 07:48:21 44° SSE 07:52:35 10° E daylight
15 Jun - 09:25:14 10° W 09:29:40 76° S 09:34:08 10° E daylight
15 Jun - 11:06:43 10° W 11:11:05 58° SSW 11:15:29 10° ESE daylight
15 Jun - 12:48:35 10° W 12:52:04 22° SW 12:55:34 10° SSE daylight
16 Jun - 06:20:02 10° SSW 06:23:31 23° SE 06:27:03 10° E daylight
16 Jun - 08:00:11 10° WSW 08:04:31 60° SSE 08:08:55 10° E daylight
16 Jun - 09:41:31 10° W 09:45:56 75° S 09:50:24 10° E daylight
16 Jun - 11:23:02 10° W 11:27:14 42° SSW 11:31:29 10° SE daylight
16 Jun - 13:05:47 10° WSW 13:07:59 13° SW 13:10:12 10° SSW daylight
17 Jun - 06:35:32 10° SW 06:39:33 35° SSE 06:43:36 10° E daylight
17 Jun - 08:16:21 10° WSW 08:20:46 72° S 08:25:12 10° E daylight
17 Jun - 09:57:48 10° W 10:02:12 66° SSW 10:06:38 10° ESE daylight
17 Jun - 11:39:29 10° W 11:43:19 29° SSW 11:47:12 10° SSE daylight
18 Jun - 05:11:52 10° S 05:14:50 18° SE 05:17:46 10° E daylight
18 Jun - 06:51:24 10° SW 06:55:41 51° SSE 06:59:59 10° E daylight
18 Jun - 08:32:37 10° W 08:37:02 77° S 08:41:30 10° E daylight
18 Jun - 10:14:06 10° W 10:18:24 51° SSW 10:22:45 10° SE daylight
18 Jun - 11:56:14 10° W 11:59:18 18° SW 12:02:23 10° S daylight
19 Jun - 05:27:02 10° SSW 05:30:47 28° SSE 05:34:33 10° E daylight
19 Jun - 07:07:30 10° WSW 07:11:53 66° SSE 07:16:17 10° E daylight
19 Jun - 08:48:54 10° W 08:53:18 73° S 08:57:45 10° ESE daylight
19 Jun - 10:30:28 10° W 10:34:33 36° SSW 10:38:39 10° SE daylight
19 Jun - 12:14:21 10° SW 12:15:10 10° SW 12:15:59 10° SSW daylight
20 Jun - 04:04:10 10° SSE 04:06:09 13° SE 04:08:08 10° ESE daylight
20 Jun - 05:42:42 10° SW 05:46:51 41° SSE 05:51:01 10° E daylight
20 Jun - 07:23:44 10° W 07:28:09 75° S 07:32:34 10° E daylight
20 Jun - 09:05:12 10° W 09:09:33 60° SSW 09:13:57 10° ESE daylight
20 Jun - 10:47:00 10° W 10:50:35 24° SW 10:54:10 10° SSE daylight
21 Jun - 04:18:41 10° SSW 04:22:03 21° SE 04:25:25 10° E daylight
21 Jun - 05:58:42 10° WSW 06:03:01 57° SSE 06:07:22 10° E daylight
21 Jun - 07:40:01 10° W 07:44:25 76° S 07:48:51 10° E daylight
21 Jun - 09:21:30 10° W 09:25:44 45° SSW 09:29:59 10° SE daylight
21 Jun - 11:04:01 10° WSW 11:06:31 15° SW 11:09:00 10° S daylight
22 Jun - 04:34:06 10° SW 04:38:03 33° SSE 04:42:01 10° E daylight
22 Jun - 06:14:51 10° WSW 06:19:14 70° S 06:23:39 10° E daylight
22 Jun - 07:56:17 10° W 08:00:41 68° S 08:05:05 10° ESE daylight
22 Jun - 09:37:56 10° W 09:41:50 31° SSW 09:45:45 10° SSE daylight
